Regional Weather Roundup
Issued by NWS Charleston, SC

Current Version | Previous Version | Graphics & Text | Print | Product List | Glossary On
Versions: 1 2 3 4 5 6 7 8 9 10 11 12 13 14 15 16 17 18 19 20 21 22 23 24 25 26 27 28 29 30 31 32 33 34 35 36 37 38 39 40 41 42 43 44 45 46 47 48 49 50
866
ASUS42 KCHS 252012
RWRCHS

REGIONAL WEATHER ROUNDUP
NATIONAL WEATHER SERVICE CHARLESTON SC
400 PM EDT TUE APR 25 2017

NOTE: "FAIR" INDICATES FEW OR NO CLOUDS BELOW 12,000 FEET WITH NO
SIGNIFICANT WEATHER AND/OR OBSTRUCTIONS TO VISIBILITY.

NOT ALL STATIONS ARE QUALITY CONTROLLED. USE DATA WITH CAUTION...
ESPECIALLY DEWPOINT OBSERVATIONS.

SCZ027-030-031-034>040-042>050-252100-
...SOUTHEAST SOUTH CAROLINA...

CITY           SKY/WX    TMP DP  RH WIND       PRES   REMARKS
N CHARLESTON   CLOUDY    73  58  59 W10       29.69F
WATERFRONT PRK   N/A     71  60  68 W5        29.68S
JOHNS ISLAND   CLOUDY    75  61  60 W12G18    29.70S
PINOPOLIS        N/A    N/A N/A N/A W7        29.61S
MONCKS CORNER  CLOUDY    70  57  64 NW6       29.69F
SUMMERVILLE    CLOUDY    72  59  64 W8        29.71S
BEAUFORT MCAS  CLOUDY    77  59  53 W9        29.70F
BEAUFORT ARPT  CLOUDY    75  59  57 W8        29.70F HAZE
HILTON HEAD IS NOT AVBL
WALTERBORO     CLOUDY    72  59  64 NW8       29.70F
ALLENDALE      CLOUDY    75  61  60 CALM      29.69F

...SOUTHERN MIDLANDS AND PEE DEE...

CITY           SKY/WX    TMP DP  RH WIND       PRES   REMARKS
GEORGETOWN     CLOUDY    68  59  73 W12       29.69S
KINGSTREE      CLOUDY    68  57  68 SW8       29.69S
ORANGEBURG     CLOUDY    73  58  59 NW8       29.70F
BARNWELL       CLOUDY    77  63  61 W8        29.70F
AIKEN          MOCLDY    72  57  60 W6        29.74F
MANNING        CLOUDY    70  57  64 MISG      29.69F
COLUMBIA       PTSUNNY   74  56  53 NW10      29.69F
SUMTER         CLOUDY    68  57  68 W9        29.68S
FLORENCE       CLOUDY    64  59  83 NW5       29.69S
MYRTLE BEACH   PTSUNNY   66  59  77 W9        29.69S
N MYRTLE BEACH CLOUDY    66  59  78 W10       29.66F

$$

GAZ063-065-086>088-099>101-113>116-118-119-134>141-150-252100-
...SOUTHEAST GEORGIA...

CITY           SKY/WX    TMP DP  RH WIND       PRES   REMARKS
SAVANNAH ARPT  PTSUNNY   80  56  43 W13       29.71F
HUNTER AAF     PTSUNNY   79  62  55 W10       29.69F
FORT STEWART   PTSUNNY   81  57  44 W9G18     29.70F
STATESBORO     CLOUDY    79  57  46 W9G17     29.71F
SYLVANIA       CLOUDY   N/A N/A N/A W7        29.71F
CLAXTON        MOCLDY    80  62  54 SW10G17   29.72F

...CSRA...CENTRAL AND FAR SOUTHEAST GEORGIA...

CITY           SKY/WX    TMP DP  RH WIND       PRES   REMARKS
THOMSON        CLOUDY    76  58  53 N9        29.76F
AUGUSTA-BUSH   PTSUNNY   78  57  48 NW15      29.69F
AUGUSTA-DANIEL CLOUDY    75  56  51 NW8       29.72S
SWAINSBORO     MOCLDY    79  57  47 W8G17     29.73S
VIDALIA        PTSUNNY   81  57  44 W8G17     29.73F
EASTMAN        FAIR      82  39  22 W6        29.76F
HAZLEHURST     FAIR      81  60  47 W6        29.73F
ALMA           PTSUNNY   81  56  42 W12G18    29.74F
WAYCROSS       MOSUNNY   85  59  41 W12G17    29.73F
JESUP          MOCLDY    81  54  39 W8G20     29.73F
BAXLEY         PTSUNNY   81  63  54 W9        29.73F
BRUNSWICK      PTSUNNY   81  61  50 SW8G20    29.74F
SAINT SIMONS   PTSUNNY   81  56  42 W14       29.73F

$$

SCZ027-028-034-036>038-045-046-048>050-GAZ119-141-252100-
...LAKE AND SUPPLEMENTAL COASTAL OBSERVATIONS...

STATION/POSITION TIME  TEMP    WIND        PRES    WAVE   SWELL
                       AIR SEA DIR/SP/G            HT/PER HT/PER/DIR
                 (UTC) (F)     (DEG/KT/KT) (MB)    (FT/S) (FT/S/D)
WINYAH BAY       1845   67     300/  9     1005.0
LAKE MURRAY      1920   69     310/  2/  7 1005.8
ACE BASIN NERRS  1845   74     280/  3     1006.0
FORT PULASKI     1942   75 75  300/ 10/ 14 1006.3F
SAPELO ISLAND    1900   78     250/ 10     1007.0

$$

ANZ835-935-AMZ111-154-330-350-352-354-370-450-454-472-252100-
...C-MAN AND BUOY OBSERVATIONS...

STATION/POSITION TIME  TEMP    WIND        PRES    WAVE   SWELL
                       AIR SEA DIR/SP/G            HT/PER HT/PER/DIR
                 (UTC) (F)     (DEG/KT/KT) (MB)    (FT/S) (FT/S/D)
BUOY 41004       1950   67 73  270/ 14/ 17 1005.5F   6/ 9   3/130/ 9
BUOY 41008       1850   68 72  150/  6/  8 1007.4    3/ 8   3/100/ 8
FOLLY BEACH CMAN 1900   71     290/  8/ 12 1006.5F
CAPERS NEARSHORE 1908   73 71  290/ 14/ 17 1005.6F
FRIPP NEARSHORE  1908   69 72  210/ 12/ 17 1006.1F


STATION/POSITION TIME  TEMP    WIND        PRES    WAVE   SWELL
                       AIR SEA DIR/SP/G            HT/PER HT/PER/DIR
                 (UTC) (F)     (DEG/KT/KT) (MB)    (FT/S) (FT/S/D)
5E ST. MARYS GA  1930      74                N/A     2/11   2/ 80/11
FRYING PAN BUOY  1950   67 74  260/ 16/ 19 1004.0F   7/10   3/120/10
BUOY 41025       1950   70 78  200/  6/  8 1002.9F   7/10   7/140/10
CAPE LOOKOUT NC  1900   70     220/  8/ 10 1003.2R
BUOY 41002       1950   74 75  230/ 17/ 21 1006.6F   9/10   5/120/10
BUOY 41010       1950   72 78              1009.4F   5/ 9   3/110/ 9
ST AUGUSTINE FL  2000   79 74  240/  9/ 11 1008.4F


$$




USA.gov is the U.S. government's official web portal to all federal, state and local government web resources and services.